Find GPS IIR-14(M)

NORAD ID: 28874 Int'l Des: 2005-038 Owner: AFSMC Country: US Constellation: GPS operational
MEOGNSS

現在のビュー

3D地球を読み込み中...

GPS IIR-14(M)について

説明を読み込み中...

次回通過

Passes for default location (London). Set your location on the main map for personalized predictions.

高度履歴

Loading altitude history...

軌道要素

1 28874U 05038A 26149.98016145 -.00000060 00000-0 00000+0 0 9997
2 28874 54.8935 273.9121 0127762 296.0409 118.9472 2.00567048151477
Epoch: May 29, 2026 • Age: 15 hours

現在のステータス

高度 20482.1 km
速度 3.83 km/s
衛星直下点 28.63°N, 33.91°W
打ち上げ日 Sep 26, 2005
運用期間 20.6 years
タイプ navigation

技術仕様

分類 Payload
質量 1077.00 kg
乾燥質量 910.00 kg
総質量 2032.00 kg
長さ 1.50 m
直径 1.90 m
スパン 19.30 m
形状 Box + 2 Pan
製造者 LMVF
バスタイプ Series 4000
フェーズステータス In Orbit
所有者/国 AFSMC/US

Most Searched